RYR75PB LEPA-LEBL

Flight info

Callsign RYR75PB
Flight time 0h 31m
Altitude 18000
Route ESPOR L2 NEPAL
Aircraft B738/M-SDGIJ1LRWY/SB1

Departure

Time 2026-05-07 07:22
Airport Palma de Mallorca Airport (LEPA)

Arrival

Time 2026-05-07 07:54
Airport Josep Tarradellas Barcelona-El Prat Airport (LEBL)
Time Latitude Longitude Altitude Speed Heading
2026-05-07 06:49 39.54791 2.73592 34 ft 0 kts 58°
2026-05-07 07:13 39.54791 2.73591 35 ft 0 kts 58°
2026-05-07 07:14 39.54785 2.73579 35 ft 2 kts 58°
2026-05-07 07:14 39.54777 2.73562 35 ft 2 kts 58°
2026-05-07 07:14 39.54769 2.73546 35 ft 2 kts 63°
2026-05-07 07:15 39.54769 2.73528 35 ft 2 kts 123°
2026-05-07 07:15 39.54775 2.73520 35 ft 0 kts 153°
2026-05-07 07:15 39.54781 2.73516 35 ft 0 kts 149°
2026-05-07 07:18 39.54779 2.73518 35 ft 1 kts 149°
2026-05-07 07:18 39.54763 2.73531 35 ft 4 kts 148°
2026-05-07 07:18 39.54724 2.73563 35 ft 9 kts 147°
2026-05-07 07:18 39.54671 2.73604 35 ft 8 kts 154°
2026-05-07 07:19 39.54617 2.73626 35 ft 7 kts 163°
2026-05-07 07:19 39.54564 2.73636 35 ft 8 kts 204°
2026-05-07 07:19 39.54520 2.73559 35 ft 13 kts 238°
2026-05-07 07:19 39.54464 2.73441 35 ft 17 kts 238°
2026-05-07 07:20 39.54402 2.73311 35 ft 16 kts 238°
2026-05-07 07:20 39.54344 2.73189 35 ft 15 kts 238°
2026-05-07 07:20 39.54289 2.73074 35 ft 13 kts 233°
2026-05-07 07:20 39.54223 2.73101 35 ft 11 kts 108°
2026-05-07 07:21 39.54214 2.73201 35 ft 11 kts 93°
2026-05-07 07:21 39.54209 2.73297 35 ft 10 kts 93°
2026-05-07 07:21 39.54225 2.73379 35 ft 9 kts 57°
2026-05-07 07:21 39.54279 2.73488 35 ft 21 kts 57°
2026-05-07 07:22 39.54440 2.73834 36 ft 77 kts 59°
2026-05-07 07:22 39.54842 2.74681 36 ft 137 kts 59°
2026-05-07 07:22 39.55401 2.75875 248 ft 164 kts 59°
2026-05-07 07:22 39.55982 2.77086 984 ft 160 kts 59°
2026-05-07 07:23 39.56558 2.78280 1689 ft 156 kts 62°
2026-05-07 07:23 39.57133 2.79533 2016 ft 169 kts 62°
2026-05-07 07:23 39.57749 2.80871 2392 ft 179 kts 60°
2026-05-07 07:23 39.58423 2.82330 2635 ft 198 kts 61°
2026-05-07 07:24 39.59159 2.83937 3036 ft 212 kts 61°
2026-05-07 07:24 39.59898 2.85558 3634 ft 215 kts 61°
2026-05-07 07:24 39.60693 2.87304 3981 ft 231 kts 61°
2026-05-07 07:24 39.61531 2.89141 4381 ft 244 kts 61°
2026-05-07 07:25 39.63700 2.92622 5602 ft 254 kts 27°
2026-05-07 07:25 39.65408 2.92985 6412 ft 252 kts 351°
2026-05-07 07:25 39.66934 2.92005 7192 ft 248 kts 314°
2026-05-07 07:26 39.67736 2.90076 7838 ft 247 kts 280°
2026-05-07 07:26 39.68073 2.87904 8468 ft 248 kts 290°
2026-05-07 07:26 39.69039 2.86090 8999 ft 253 kts 323°
2026-05-07 07:26 39.70604 2.84932 9401 ft 265 kts 334°
2026-05-07 07:27 39.72259 2.83727 9784 ft 278 kts 325°
2026-05-07 07:27 39.73817 2.82137 10196 ft 291 kts 317°
2026-05-07 07:27 39.75275 2.80325 10807 ft 295 kts 314°
2026-05-07 07:27 39.76705 2.78412 11496 ft 297 kts 313°
2026-05-07 07:28 39.78150 2.76453 12185 ft 301 kts 313°
2026-05-07 07:28 39.79590 2.74518 12872 ft 303 kts 313°
2026-05-07 07:28 39.81098 2.72512 13320 ft 315 kts 313°
2026-05-07 07:28 39.82676 2.70423 13676 ft 330 kts 313°
2026-05-07 07:29 39.84320 2.68250 14024 ft 345 kts 313°
2026-05-07 07:29 39.86055 2.65958 14380 ft 359 kts 313°
2026-05-07 07:29 39.87813 2.63636 14983 ft 366 kts 313°
2026-05-07 07:29 39.89603 2.61269 15637 ft 370 kts 313°
2026-05-07 07:30 39.91407 2.58881 16309 ft 374 kts 313°
2026-05-07 07:30 39.93252 2.56437 17005 ft 377 kts 313°
2026-05-07 07:30 39.95069 2.54026 17655 ft 380 kts 313°
2026-05-07 07:30 39.96928 2.51555 17931 ft 384 kts 312°
2026-05-07 07:31 39.98808 2.49054 17945 ft 383 kts 312°
2026-05-07 07:31 40.00669 2.46578 17944 ft 381 kts 312°
2026-05-07 07:31 40.02508 2.44130 17946 ft 381 kts 312°
2026-05-07 07:31 40.04368 2.41651 17947 ft 381 kts 313°
2026-05-07 07:32 40.06220 2.39181 17946 ft 381 kts 312°
2026-05-07 07:32 40.08079 2.36701 17948 ft 381 kts 313°
2026-05-07 07:32 40.09929 2.34229 17952 ft 382 kts 311°
2026-05-07 07:32 40.11809 2.31716 17954 ft 382 kts 311°
2026-05-07 07:33 40.13660 2.29240 17951 ft 382 kts 312°
2026-05-07 07:33 40.15511 2.26762 17951 ft 382 kts 311°
2026-05-07 07:33 40.17367 2.24272 17954 ft 382 kts 312°
2026-05-07 07:33 40.19212 2.21796 17952 ft 382 kts 312°
2026-05-07 07:34 40.21066 2.19306 17953 ft 382 kts 312°
2026-05-07 07:34 40.22912 2.16826 17954 ft 382 kts 312°
2026-05-07 07:34 40.24773 2.14324 17954 ft 382 kts 312°
2026-05-07 07:34 40.26681 2.11916 17954 ft 383 kts 316°
2026-05-07 07:35 40.28831 2.09801 17952 ft 386 kts 327°
2026-05-07 07:35 40.31239 2.08263 17954 ft 388 kts 336°
2026-05-07 07:35 40.33762 2.07065 17956 ft 389 kts 339°
2026-05-07 07:35 40.36358 2.05996 17956 ft 389 kts 341°
2026-05-07 07:36 40.38935 2.04987 17956 ft 390 kts 341°
2026-05-07 07:36 40.41557 2.03963 17954 ft 388 kts 341°
2026-05-07 07:36 40.44129 2.02942 17959 ft 389 kts 341°
2026-05-07 07:36 40.46723 2.01894 17950 ft 381 kts 341°
2026-05-07 07:37 40.49196 2.00883 17799 ft 368 kts 340°
2026-05-07 07:37 40.51620 1.99881 17470 ft 361 kts 340°
2026-05-07 07:37 40.53985 1.98895 17036 ft 358 kts 340°
2026-05-07 07:37 40.56348 1.97906 16563 ft 355 kts 340°
2026-05-07 07:38 40.58698 1.96920 16089 ft 353 kts 340°
2026-05-07 07:38 40.61039 1.95938 15611 ft 350 kts 340°
2026-05-07 07:38 40.63336 1.94975 15140 ft 348 kts 340°
2026-05-07 07:38 40.65628 1.94017 14671 ft 346 kts 342°
2026-05-07 07:39 40.67974 1.93316 14196 ft 345 kts 352°
2026-05-07 07:39 40.70390 1.93493 13735 ft 344 kts 13°
2026-05-07 07:39 40.72590 1.94678 13290 ft 341 kts 27°
2026-05-07 07:39 40.74651 1.96173 12823 ft 339 kts 29°
2026-05-07 07:40 40.76688 1.97685 12375 ft 337 kts 29°
2026-05-07 07:40 40.78721 1.99183 11926 ft 334 kts 28°
2026-05-07 07:40 40.80774 2.00677 11466 ft 332 kts 28°
2026-05-07 07:40 40.82793 2.02135 11022 ft 329 kts 28°
2026-05-07 07:41 40.84789 2.03569 10589 ft 326 kts 28°
2026-05-07 07:41 40.86753 2.04977 10333 ft 317 kts 28°
2026-05-07 07:41 40.88671 2.06354 10204 ft 306 kts 28°
2026-05-07 07:41 40.90509 2.07674 10083 ft 303 kts 28°
2026-05-07 07:42 40.92379 2.09020 9960 ft 304 kts 28°
2026-05-07 07:42 40.94191 2.10358 9832 ft 294 kts 29°
2026-05-07 07:42 40.95945 2.11682 9702 ft 286 kts 29°
2026-05-07 07:42 40.97673 2.12991 9586 ft 286 kts 29°
2026-05-07 07:43 40.99407 2.14302 9459 ft 287 kts 29°
2026-05-07 07:43 41.01138 2.15608 9334 ft 286 kts 29°
2026-05-07 07:43 41.02862 2.16906 9212 ft 285 kts 29°
2026-05-07 07:43 41.04608 2.18221 9086 ft 285 kts 29°
2026-05-07 07:44 41.06330 2.19518 8962 ft 284 kts 29°
2026-05-07 07:44 41.08044 2.20806 8843 ft 284 kts 29°
2026-05-07 07:44 41.09753 2.22092 8697 ft 283 kts 29°
2026-05-07 07:44 41.11467 2.23385 8506 ft 281 kts 29°
2026-05-07 07:45 41.13161 2.24665 8319 ft 280 kts 29°
2026-05-07 07:45 41.14856 2.25946 8131 ft 279 kts 29°
2026-05-07 07:45 41.16523 2.27212 7946 ft 279 kts 31°
2026-05-07 07:45 41.18077 2.28746 7707 ft 278 kts 45°
2026-05-07 07:46 41.19245 2.30745 7465 ft 272 kts 56°
2026-05-07 07:46 41.20223 2.32873 7216 ft 267 kts 59°
2026-05-07 07:46 41.21174 2.34985 6829 ft 265 kts 58°
2026-05-07 07:46 41.22132 2.37032 6461 ft 258 kts 58°
2026-05-07 07:47 41.23095 2.38980 6092 ft 252 kts 54°
2026-05-07 07:47 41.24292 2.40642 5707 ft 248 kts 33°
2026-05-07 07:47 41.25917 2.41326 5376 ft 243 kts 359°
2026-05-07 07:47 41.27512 2.40854 5153 ft 234 kts 336°
2026-05-07 07:48 41.28966 2.39919 4914 ft 229 kts 335°
2026-05-07 07:48 41.30403 2.39047 4664 ft 225 kts 337°
2026-05-07 07:48 41.31832 2.38209 4422 ft 222 kts 336°
2026-05-07 07:48 41.33170 2.37240 4169 ft 220 kts 327°
2026-05-07 07:49 41.34429 2.36063 3917 ft 218 kts 324°
2026-05-07 07:49 41.35629 2.34881 3677 ft 215 kts 324°
2026-05-07 07:49 41.36780 2.33660 3420 ft 211 kts 316°
2026-05-07 07:49 41.37564 2.32035 3167 ft 207 kts 283°
2026-05-07 07:50 41.37507 2.30178 2985 ft 201 kts 249°
2026-05-07 07:50 41.36853 2.28575 2818 ft 198 kts 238°
2026-05-07 07:50 41.36213 2.26957 2664 ft 194 kts 245°
2026-05-07 07:50 41.35685 2.25326 2498 ft 191 kts 246°
2026-05-07 07:51 41.35146 2.23709 2217 ft 191 kts 245°
2026-05-07 07:51 41.34591 2.22095 1951 ft 190 kts 244°
2026-05-07 07:51 41.34040 2.20489 1687 ft 190 kts 245°
2026-05-07 07:51 41.33505 2.18915 1450 ft 181 kts 245°
2026-05-07 07:52 41.32997 2.17433 1223 ft 167 kts 245°
2026-05-07 07:52 41.32526 2.16060 961 ft 162 kts 245°
2026-05-07 07:52 41.32061 2.14711 746 ft 159 kts 245°
2026-05-07 07:52 41.31593 2.13375 543 ft 158 kts 246°
2026-05-07 07:53 41.31134 2.12041 315 ft 159 kts 246°
2026-05-07 07:53 41.30685 2.10713 114 ft 157 kts 248°
2026-05-07 07:53 41.30261 2.09444 22 ft 131 kts 244°
2026-05-07 07:53 41.29971 2.08622 23 ft 71 kts 246°
2026-05-07 07:54 41.29804 2.08129 22 ft 51 kts 246°
2026-05-07 07:54 41.29750 2.07732 22 ft 34 kts 276°
2026-05-07 07:54 41.29807 2.07606 22 ft 13 kts 335°
2026-05-07 07:54 41.29893 2.07557 23 ft 13 kts 336°
2026-05-07 07:55 41.29974 2.07530 23 ft 11 kts 28°
2026-05-07 07:55 41.30016 2.07617 22 ft 11 kts 65°
2026-05-07 07:55 41.30061 2.07688 23 ft 10 kts 20°
2026-05-07 07:55 41.30123 2.07712 23 ft 6 kts 16°
2026-05-07 07:56 41.30132 2.07716 22 ft 0 kts 17°